{"data":{"norad_id":43013,"intl_designator":"2017-073A","name":"NOAA 20 (JPSS-1)","alt_names":[],"object_type":"PAYLOAD","status":"ACTIVE","operator":null,"country":"US","launch_date":"2017-11-18","launch_site_code":"AFWTR","launch_vehicle":null,"mission":null,"orbit_class":"UNKNOWN","rcs_meters":null,"size_class":null,"mass_kg":null,"dimensions":null,"purposes":["earth_obs"],"wikipedia_slug":null,"has_3d_model":false,"image_url":null,"decayed_at":null,"tle_current":{"epoch":"2026-09-20T03:46:41.971872Z","epoch_age_seconds":44045,"freshness":"FRESH","line1":"1 43013U 17073A   26263.15743023  .00000047  00000+0  43324-4 0  9993","line2":"2 43013  98.7823 201.7936 0001361  43.5262 316.6021 14.19526713457948","mean_motion":14.19526713,"eccentricity":0.0001361,"inclination_deg":98.7823,"raan_deg":201.7936,"arg_perigee_deg":43.5262,"mean_anomaly_deg":316.6021,"bstar":4.3324e-5,"rev_number":45794,"period_min":101.44226148142,"perigee_km":825.97324254691,"apogee_km":827.93446827776,"semimajor_km":7205.0908554123,"source":"CELESTRAK","updated_at":"2026-09-20T09:00:33.219867Z"}}}